TimeCDT,TemperatureF,Dew PointF,Humidity,Sea Level PressureIn,VisibilityMPH,Wind Direction,Wind SpeedMPH,Gust SpeedMPH,PrecipitationIn,Events,Conditions,WindDirDegrees,DateUTC
12:00 AM,8.6,-9999,N/A,29.52,9.0,ENE,11.5,-,N/A,,Partly Cloudy,60,2012-10-14 05:00:00
1:00 AM,5,,,29.53,9,NE,12.7,,,,,40,2012-10-14 06:00:00
1:17 AM,5.0,-9999,N/A,29.51,9.0,NE,9.2,-,N/A,,Clear,50,2012-10-14 06:17:00
2:00 AM,6.8,-9999,N/A,29.54,9.0,NE,8.1,-,N/A,,Clear,50,2012-10-14 07:00:00
2:07 AM,6.8,-9999,N/A,29.52,2.8,NNE,5.8,-,N/A,,Clear,20,2012-10-14 07:07:00
2:12 AM,5.0,-9999,N/A,29.52,1.4,NNE,9.2,-,N/A,,Clear,20,2012-10-14 07:12:00
2:19 AM,6.8,-9999,N/A,29.52,1.4,NNE,10.4,-,N/A,,Clear,30,2012-10-14 07:19:00
2:21 AM,8.6,-9999,N/A,29.52,1.4,NNE,11.5,-,N/A,,Clear,30,2012-10-14 07:21:00
2:22 AM,8.6,-9999,N/A,29.52,1.4,NNE,11.5,-,N/A,,Clear,30,2012-10-14 07:22:00
2:24 AM,8.6,-9999,N/A,29.52,0.8,NNE,10.4,-,N/A,,Clear,30,2012-10-14 07:24:00
2:25 AM,10.4,-9999,N/A,29.52,0.6,NNE,10.4,-,N/A,,Clear,30,2012-10-14 07:25:00
2:27 AM,10.4,-9999,N/A,29.52,0.4,NNE,10.4,-,N/A,,Clear,30,2012-10-14 07:27:00
3:00 AM,10.4,-9999,N/A,29.55,0.4,NNE,10.4,-,N/A,,Clear,20,2012-10-14 08:00:00
3:13 AM,10.4,-9999,N/A,29.53,0.4,NNE,10.4,-,N/A,,Clear,20,2012-10-14 08:13:00
3:15 AM,10.4,-9999,N/A,29.53,0.8,NNE,10.4,-,N/A,,Clear,20,2012-10-14 08:15:00
3:26 AM,8.6,-9999,N/A,29.53,1.4,North,9.2,-,N/A,,Clear,10,2012-10-14 08:26:00
3:27 AM,8.6,-9999,N/A,29.53,1.4,NNE,9.2,-,N/A,,Clear,20,2012-10-14 08:27:00
3:33 AM,10.4,-9999,N/A,29.53,1.4,North,8.1,-,N/A,,Clear,10,2012-10-14 08:33:00
3:36 AM,10.4,-9999,N/A,29.53,2.5,North,8.1,-,N/A,,Clear,10,2012-10-14 08:36:00
3:46 AM,8.6,-9999,N/A,29.53,5.0,North,9.2,-,N/A,,Clear,360,2012-10-14 08:46:00
3:54 AM,10.4,-9999,N/A,29.54,2.5,North,6.9,-,N/A,,Clear,360,2012-10-14 08:54:00
3:58 AM,10.4,-9999,N/A,29.54,2.1,North,8.1,-,N/A,,Clear,350,2012-10-14 08:58:00
4:00 AM,10,,,29.56,2,North,8.1,,,,,0,2012-10-14 09:00:00
4:00 AM,10.4,-9999,N/A,29.56,2.0,North,6.9,-,N/A,,Clear,350,2012-10-14 09:00:00
4:03 AM,8.6,-9999,N/A,29.54,1.6,North,6.9,-,N/A,,Clear,350,2012-10-14 09:03:00
4:22 AM,8.6,-9999,N/A,29.54,1.5,North,8.1,-,N/A,,Clear,10,2012-10-14 09:22:00
4:23 AM,8.6,-9999,N/A,29.54,1.2,North,8.1,-,N/A,,Clear,10,2012-10-14 09:23:00
4:29 AM,8.6,-9999,N/A,29.54,1.0,NNE,8.1,-,N/A,,Clear,20,2012-10-14 09:29:00
4:35 AM,10.4,-9999,N/A,29.54,0.6,NNE,9.2,-,N/A,,Clear,30,2012-10-14 09:35:00
4:46 AM,8.6,-9999,N/A,29.54,1.0,NNE,11.5,-,N/A,,Overcast,30,2012-10-14 09:46:00
4:50 AM,8.6,-9999,N/A,29.54,1.1,NNE,10.4,-,N/A,Snow,Light Snow,30,2012-10-14 09:50:00
4:58 AM,12.2,-9999,N/A,29.54,1.0,NNE,10.4,-,N/A,Snow,Light Snow,20,2012-10-14 09:58:00
5:00 AM,14.0,-9999,N/A,29.57,0.6,NNE,10.4,-,N/A,Snow,Light Snow,20,2012-10-14 10:00:00
5:09 AM,14.0,-9999,N/A,29.55,0.5,North,10.4,-,N/A,,Clear,10,2012-10-14 10:09:00
5:53 AM,14.0,-9999,N/A,29.55,0.4,North,8.1,-,N/A,,Overcast,350,2012-10-14 10:53:00
6:00 AM,14.0,-9999,N/A,29.57,0.4,NNW,6.9,-,N/A,,Overcast,340,2012-10-14 11:00:00
6:29 AM,15.8,-9999,N/A,29.56,0.6,NNW,4.6,-,N/A,,Overcast,330,2012-10-14 11:29:00
6:35 AM,15.8,-9999,N/A,29.56,1.0,NNW,4.6,-,N/A,,Overcast,340,2012-10-14 11:35:00
6:42 AM,15.8,-9999,N/A,29.56,3.5,NNW,4.6,-,N/A,,Overcast,340,2012-10-14 11:42:00
6:45 AM,15.8,-9999,N/A,29.56,4.0,NNW,5.8,-,N/A,,Overcast,330,2012-10-14 11:45:00
6:47 AM,15.8,-9999,N/A,29.56,5.0,NW,5.8,-,N/A,,Overcast,320,2012-10-14 11:47:00
6:57 AM,15.8,-9999,N/A,29.56,9.0,NNW,4.6,-,N/A,,Overcast,340,2012-10-14 11:57:00
7:00 AM,17,,,29.58,9,NNW,4.6,,,,Overcast,330,2012-10-14 12:00:00
7:00 AM,15.8,-9999,N/A,29.58,9.0,NNW,4.6,-,N/A,,Overcast,340,2012-10-14 12:00:00
7:05 AM,17.6,-9999,N/A,29.56,9.0,NNW,4.6,-,N/A,,Overcast,340,2012-10-14 12:05:00
7:10 AM,17.6,-9999,N/A,29.56,4.0,North,5.8,-,N/A,,Overcast,350,2012-10-14 12:10:00
7:12 AM,17.6,-9999,N/A,29.56,2.8,NNW,5.8,-,N/A,,Overcast,340,2012-10-14 12:12:00
7:23 AM,17.6,-9999,N/A,29.57,2.0,North,4.6,-,N/A,,Overcast,350,2012-10-14 12:23:00
7:28 AM,17.6,-9999,N/A,29.57,1.5,North,4.6,-,N/A,Snow,Light Snow,360,2012-10-14 12:28:00
7:29 AM,19.4,-9999,N/A,29.57,1.4,North,4.6,-,N/A,Snow,Light Snow,360,2012-10-14 12:29:00
7:40 AM,19.4,-9999,N/A,29.57,1.1,North,6.9,-,N/A,Snow,Light Snow,10,2012-10-14 12:40:00
7:58 AM,19.4,-9999,N/A,29.58,1.1,NNE,8.1,-,N/A,,Overcast,30,2012-10-14 12:58:00
8:00 AM,19.4,-9999,N/A,29.60,1.1,NNE,6.9,-,N/A,,Overcast,30,2012-10-14 13:00:00
8:07 AM,19.4,-9999,N/A,29.58,1.4,NNE,6.9,-,N/A,,Clear,30,2012-10-14 13:07:00
8:17 AM,19.4,-9999,N/A,29.58,2.5,North,6.9,-,N/A,,Clear,10,2012-10-14 13:17:00
8:32 AM,19.4,-9999,N/A,29.58,1.2,North,5.8,-,N/A,,Overcast,360,2012-10-14 13:32:00
8:35 AM,19.4,-9999,N/A,29.58,0.8,North,5.8,-,N/A,,Overcast,350,2012-10-14 13:35:00
8:36 AM,19.4,-9999,N/A,29.58,0.6,North,5.8,-,N/A,,Overcast,350,2012-10-14 13:36:00
8:41 AM,19.4,-9999,N/A,29.58,0.4,North,5.8,-,N/A,,Overcast,350,2012-10-14 13:41:00
9:00 AM,19.4,-9999,N/A,29.61,0.1,NNW,5.8,-,N/A,,Overcast,340,2012-10-14 14:00:00
9:08 AM,19.4,-9999,N/A,29.59,0.1,NNW,5.8,-,N/A,,Overcast,340,2012-10-14 14:08:00
9:17 AM,19.4,-9999,N/A,29.59,0.1,NNW,5.8,-,N/A,,Overcast,340,2012-10-14 14:17:00
9:23 AM,19.4,-9999,N/A,29.59,0.2,NNW,4.6,-,N/A,,Overcast,340,2012-10-14 14:23:00
9:35 AM,19.4,-9999,N/A,29.59,0.8,NNW,5.8,-,N/A,,Overcast,340,2012-10-14 14:35:00
9:39 AM,19.4,-9999,N/A,29.59,0.6,NNW,5.8,-,N/A,,Overcast,340,2012-10-14 14:39:00
9:50 AM,19.4,-9999,N/A,29.59,1.0,NNW,4.6,-,N/A,,Overcast,340,2012-10-14 14:50:00
9:59 AM,19.4,-9999,N/A,29.59,2.5,North,3.5,-,N/A,,Overcast,360,2012-10-14 14:59:00
10:00 AM,19,,,29.61,2,North,4.6,,,,Overcast,0,2012-10-14 15:00:00
10:00 AM,19.4,-9999,N/A,29.61,2.2,North,3.5,-,N/A,,Overcast,360,2012-10-14 15:00:00
10:09 AM,19.4,-9999,N/A,29.59,1.4,NNW,5.8,-,N/A,,Overcast,340,2012-10-14 15:09:00
10:14 AM,19.4,-9999,N/A,29.59,1.0,NNW,5.8,-,N/A,,Overcast,340,2012-10-14 15:14:00
10:17 AM,19.4,-9999,N/A,29.60,0.6,NNW,5.8,-,N/A,,Overcast,340,2012-10-14 15:17:00
10:30 AM,19.4,-9999,N/A,29.60,1.0,North,3.5,-,N/A,,Overcast,10,2012-10-14 15:30:00
10:35 AM,17.6,-9999,N/A,29.60,1.1,East,3.5,-,N/A,,Overcast,80,2012-10-14 15:35:00
10:40 AM,10.4,-9999,N/A,29.61,1.4,ESE,8.1,-,N/A,,Overcast,110,2012-10-14 15:40:00
10:43 AM,8.6,-9999,N/A,29.61,3.5,ESE,6.9,-,N/A,,Overcast,110,2012-10-14 15:43:00
10:56 AM,8.6,-9999,N/A,29.61,2.6,ESE,8.1,-,N/A,,Overcast,120,2012-10-14 15:56:00
11:00 AM,8.6,-9999,N/A,29.64,1.5,ESE,6.9,-,N/A,,Overcast,120,2012-10-14 16:00:00
11:06 AM,8.6,-9999,N/A,29.62,1.1,ESE,5.8,-,N/A,,Overcast,120,2012-10-14 16:06:00
11:10 AM,8.6,-9999,N/A,29.62,1.1,SE,4.6,-,N/A,,Unknown,140,2012-10-14 16:10:00
11:15 AM,8.6,-9999,N/A,29.62,1.0,SE,3.5,-,N/A,,Overcast,130,2012-10-14 16:15:00
11:30 AM,8.6,-9999,N/A,29.61,0.6,ESE,2.3,-,N/A,,Clear,120,2012-10-14 16:30:00
11:34 AM,10.4,-9999,N/A,29.62,0.4,SE,2.3,-,N/A,,Overcast,140,2012-10-14 16:34:00
12:00 PM,10.4,-9999,N/A,29.64,0.4,ENE,3.5,-,N/A,,Overcast,70,2012-10-14 17:00:00
12:08 PM,10.4,-9999,N/A,29.63,0.2,ENE,3.5,-,N/A,,Overcast,60,2012-10-14 17:08:00
12:14 PM,10.4,-9999,N/A,29.63,0.2,ENE,4.6,-,N/A,,Overcast,60,2012-10-14 17:14:00
12:20 PM,10.4,-9999,N/A,29.63,1.0,ENE,4.6,-,N/A,,Overcast,60,2012-10-14 17:20:00
12:23 PM,10.4,-9999,N/A,29.63,1.5,East,4.6,-,N/A,,Overcast,80,2012-10-14 17:23:00
12:41 PM,12.2,-9999,N/A,29.63,9.0,ENE,8.1,-,N/A,,Overcast,60,2012-10-14 17:41:00
12:58 PM,12.2,-9999,N/A,29.64,9.0,ENE,8.1,-,N/A,,Overcast,60,2012-10-14 17:58:00
1:00 PM,13,,,29.66,9,ENE,6.9,,,,Overcast,60,2012-10-14 18:00:00
1:00 PM,12.2,-9999,N/A,29.66,9.0,ENE,6.9,-,N/A,,Overcast,60,2012-10-14 18:00:00
1:40 PM,17.6,-9999,N/A,29.65,9.0,ENE,9.2,-,N/A,,Overcast,60,2012-10-14 18:40:00
2:00 PM,17.6,-9999,N/A,29.68,9.0,ENE,8.1,-,N/A,,Overcast,60,2012-10-14 19:00:00
2:20 PM,17.6,-9999,N/A,29.67,9.0,ENE,5.8,-,N/A,,Overcast,60,2012-10-14 19:20:00
3:00 PM,17.6,-9999,N/A,29.70,9.0,ENE,9.2,-,N/A,,Overcast,70,2012-10-14 20:00:00
4:00 PM,16,,,29.72,9,ENE,5.8,,,,Overcast,60,2012-10-14 21:00:00
4:00 PM,15.8,-9999,N/A,29.72,9.0,NE,5.8,-,N/A,,Overcast,50,2012-10-14 21:00:00
4:03 PM,15.8,-9999,N/A,29.70,9.0,NE,6.9,-,N/A,,Overcast,50,2012-10-14 21:03:00
4:59 PM,17.6,-9999,N/A,29.71,9.0,NE,5.8,-,N/A,,Overcast,50,2012-10-14 21:59:00
5:00 PM,17.6,-9999,N/A,29.73,9.0,NE,5.8,-,N/A,,Overcast,50,2012-10-14 22:00:00
5:06 PM,17.6,-9999,N/A,29.72,9.0,ENE,6.9,-,N/A,,Overcast,60,2012-10-14 22:06:00
5:14 PM,17.6,-9999,N/A,29.72,9.0,ENE,6.9,-,N/A,,Overcast,70,2012-10-14 22:14:00
5:26 PM,15.8,-9999,N/A,29.72,9.0,East,8.1,-,N/A,,Overcast,80,2012-10-14 22:26:00
6:00 PM,14.0,-9999,N/A,29.75,9.0,East,6.9,-,N/A,,Overcast,100,2012-10-14 23:00:00
6:49 PM,10.4,-9999,N/A,29.74,9.0,East,6.9,-,N/A,,Mostly Cloudy,90,2012-10-14 23:49:00
6:51 PM,10.4,-9999,N/A,29.74,9.0,East,6.9,-,N/A,,Partly Cloudy,90,2012-10-14 23:51:00
6:56 PM,10.4,-9999,N/A,29.74,3.0,East,6.9,-,N/A,,Clear,100,2012-10-14 23:56:00
6:58 PM,10.4,-9999,N/A,29.75,1.2,East,6.9,-,N/A,,Clear,100,2012-10-14 23:58:00
7:00 PM,10,,,29.77,1,East,6.9,,,,,100,2012-10-15 00:00:00
7:00 PM,10.4,-9999,N/A,29.77,0.8,East,5.8,-,N/A,,Clear,90,2012-10-15 00:00:00
7:04 PM,10.4,-9999,N/A,29.75,0.4,East,8.1,-,N/A,,Clear,80,2012-10-15 00:04:00
7:14 PM,10.4,-9999,N/A,29.75,1.0,East,8.1,-,N/A,,Clear,80,2012-10-15 00:14:00
7:17 PM,10.4,-9999,N/A,29.75,1.8,East,9.2,-,N/A,,Clear,90,2012-10-15 00:17:00
7:28 PM,10.4,-9999,N/A,29.76,9.0,ENE,8.1,-,N/A,,Scattered Clouds,70,2012-10-15 00:28:00
7:33 PM,10.4,-9999,N/A,29.76,9.0,ENE,6.9,-,N/A,,Mostly Cloudy,70,2012-10-15 00:33:00
7:56 PM,10.4,-9999,N/A,29.76,2.1,East,9.2,-,N/A,,Mostly Cloudy,90,2012-10-15 00:56:00
7:58 PM,10.4,-9999,N/A,29.76,1.4,East,10.4,-,N/A,,Mostly Cloudy,90,2012-10-15 00:58:00
8:00 PM,10.4,-9999,N/A,29.78,1.1,East,10.4,-,N/A,,Scattered Clouds,90,2012-10-15 01:00:00
8:07 PM,10.4,-9999,N/A,29.77,3.0,East,10.4,-,N/A,,Partly Cloudy,90,2012-10-15 01:07:00
8:10 PM,10.4,-9999,N/A,29.77,9.0,East,9.2,-,N/A,,Mostly Cloudy,90,2012-10-15 01:10:00
8:11 PM,10.4,-9999,N/A,29.77,9.0,East,9.2,-,N/A,,Mostly Cloudy,90,2012-10-15 01:11:00
8:27 PM,12.2,-9999,N/A,29.77,9.0,East,10.4,-,N/A,,Scattered Clouds,90,2012-10-15 01:27:00
8:35 PM,14.0,-9999,N/A,29.77,9.0,East,8.1,-,N/A,,Mostly Cloudy,90,2012-10-15 01:35:00
8:39 PM,14.0,-9999,N/A,29.77,9.0,East,8.1,-,N/A,,Overcast,90,2012-10-15 01:39:00
8:43 PM,14.0,-9999,N/A,29.77,9.0,East,8.1,-,N/A,,Overcast,80,2012-10-15 01:43:00
9:00 PM,15.8,-9999,N/A,29.79,9.0,East,5.8,-,N/A,,Overcast,90,2012-10-15 02:00:00
10:00 PM,16,,,29.80,9,East,4.6,,,,Overcast,100,2012-10-15 03:00:00
10:00 PM,15.8,-9999,N/A,29.80,9.0,East,5.8,-,N/A,,Overcast,90,2012-10-15 03:00:00
10:34 PM,15.8,-9999,N/A,29.78,9.0,ESE,5.8,-,N/A,,Overcast,120,2012-10-15 03:34:00
10:56 PM,15.8,-9999,N/A,29.78,9.0,East,6.9,-,N/A,,Overcast,100,2012-10-15 03:56:00
11:00 PM,15.8,-9999,N/A,29.81,9.0,East,8.1,-,N/A,,Overcast,100,2012-10-15 04:00:00